Location: Pulvis Stellarum Observatory
(41.6962°N, 71.4263°W)
Time: 02:57:29
(UTC-04:00)

Cosmos 1758 - Visible Passes

Search period start: 02 September 2014 00:00
Search period end: 12 September 2014 00:00
Orbit: 552 x 574 km, 82.5° (Epoch: 02 September)

Date Brightness Start Highest point End Pass type
(mag) Time Alt. Az. Time Alt. Az. Time Alt. Az.
02 Sep 6.1 22:31:39 13° NNE 22:31:39 13° NNE 22:32:10 10° N visible
03 Sep 6.1 22:31:16 14° N 22:31:16 14° N 22:31:56 10° N visible
04 Sep 6.0 22:30:51 16° N 22:30:51 16° N 22:31:41 10° N visible
05 Sep 6.0 22:30:25 17° N 22:30:25 17° N 22:31:23 10° N visible
06 Sep 6.0 22:29:57 17° N 22:29:57 17° N 22:31:04 10° N visible
07 Sep 6.0 22:29:27 18° NNW 22:29:27 18° NNW 22:30:44 10° N visible
08 Sep 5.8 20:52:57 11° NE 20:52:57 11° NE 20:53:10 10° NE visible
08 Sep 6.0 22:28:54 19° NNW 22:28:54 19° NNW 22:30:21 10° NNW visible
09 Sep 5.5 20:52:21 14° NE 20:52:21 14° NE 20:53:10 10° NE visible
09 Sep 6.0 22:28:19 19° NW 22:28:19 19° NW 22:29:55 10° NNW visible
10 Sep 5.2 20:51:43 18° NE 20:51:43 18° NE 20:53:06 10° NNE visible
10 Sep 6.1 22:27:40 18° NW 22:27:40 18° NW 22:29:27 10° NNW visible
11 Sep 4.9 20:50:59 24° NE 20:50:59 24° NE 20:52:59 10° NNE visible
11 Sep 6.1 22:26:56 17° NW 22:26:56 17° NW 22:28:54 10° NNW visible
